Wind_Speed
11 13 16 18 22 21 24 22 29 36 44 46 47 42 42 33 28 28 28 26 25 28 26 27 28 32 33 32 31 33 35 36 38 40 37 34 33 33 34 33 33 36 36
18 21 16 12 9 11 16 29 30 28 26 27 30 30 33 27 26 30 30 29 29 33 30 29 29 32 33 34 34 34 34 35 37 39 37 35 31 31 33 33 33 36 38
20 17 13 7 17 22 22 25 21 19 18 17 19 29 34 33 32 30 30 31 35 35 34 34 32 32 32 35 35 31 33 35 35 36 36 34 29 29 32 34 34 34 33
20 19 13 14 16 19 21 22 20 19 27 26 25 28 32 35 39 41 39 36 36 37 38 37 36 33 31 31 31 28 25 29 31 32 33 32 29 28 29 30 32 34 33
25 23 21 21 23 23 22 22 22 20 16 19 25 33 34 40 40 41 44 36 39 39 39 37 38 33 31 30 30 27 24 26 26 25 26 27 27 27 28 28 30 30 31
21 22 24 25 26 25 25 25 23 21 23 24 25 25 27 32 39 43 41 45 46 39 40 38 37 34 32 31 30 30 25 27 28 26 28 29 25 25 26 27 30 35 32
21 20 21 23 26 26 23 24 23 23 26 29 31 31 33 34 35 37 36 37 39 39 40 37 37 36 32 30 29 26 24 23 26 23 24 25 23 24 22 24 30 33 36
31 28 27 27 27 27 27 28 26 29 32 32 32 33 34 35 34 36 38 38 38 38 38 36 35 33 31 29 27 23 19 17 17 15 17 16 18 17 22 23 27 28 29
33 34 35 30 31 29 30 29 30 34 33 34 35 36 36 36 35 34 33 36 37 36 33 32 31 30 25 24 23 19 17 14 12 13 15 15 15 15 12 13 24 29 29
37 35 33 31 29 27 27 28 30 32 34 34 33 32 34 35 34 34 32 32 36 34 30 28 26 24 21 20 23 21 18 15 13 11 9 10 10 9 3 3 18 26 28
35 35 32 29 30 30 28 29 30 32 33 34 32 31 32 31 29 26 26 29 30 28 26 23 22 21 21 21 24 21 16 15 13 13 10 8 7 6 5 4 10 14 26
33 30 30 29 28 29 29 30 29 30 29 29 30 31 29 26 23 24 23 23 22 23 25 21 19 16 19 23 23 22 19 17 16 14 11 8 5 10 10 11 10 13 11
32 31 30 31 30 29 28 27 27 27 27 29 30 31 30 25 21 20 20 20 19 23 19 19 17 16 17 21 21 23 23 23 20 15 10 7 6 13 15 20 23 19 15
30 30 29 28 27 26 26 27 27 30 31 31 30 27 29 24 18 15 13 8 9 15 18 17 16 14 18 18 19 22 25 23 20 16 14 10 7 17 19 23 28 23 17
28 28 29 29 28 28 26 27 26 26 32 29 23 23 21 20 17 12 9 12 13 13 13 12 14 18 21 22 22 21 21 19 19 16 18 14 11 14 22 23 26 27 22
27 28 28 27 25 25 25 27 26 27 28 28 16 20 21 20 20 17 16 14 11 9 8 13 15 20 24 27 26 23 20 19 18 16 20 18 14 14 18 27 26 26 27
24 27 27 24 24 23 24 27 29 31 28 28 29 26 22 17 15 14 11 13 12 7 6 10 14 17 21 23 25 24 21 18 17 19 20 23 17 16 17 20 25 25 25
22 23 23 23 22 22 23 25 23 25 28 29 27 26 27 21 19 11 8 7 5 6 6 8 9 13 15 20 27 27 23 21 17 20 21 24 22 19 20 21 21 22 24
21 22 21 21 20 21 21 22 22 23 25 27 27 23 22 19 22 21 11 5 1 2 7 7 9 11 14 16 19 24 23 21 20 18 21 25 25 23 23 21 20 19 20
22 20 20 20 20 20 21 22 23 23 24 26 27 28 28 20 14 17 17 11 6 2 5 5 8 11 13 13 10 13 16 18 18 21 27 24 24 27 25 23 21 19 19
25 24 22 21 21 21 22 23 24 23 23 23 25 25 24 23 19 15 10 7 6 5 7 5 4 7 10 10 11 10 11 16 18 20 22 27 26 27 29 27 26 23 24
25 25 24 24 24 24 23 24 24 23 24 25 25 24 24 26 27 27 25 19 10 6 5 5 6 5 6 10 13 14 13 16 18 23 25 26 27 28 28 31 31 29 25
23 25 24 25 26 25 25 24 24 24 26 26 26 27 28 29 28 27 26 24 24 22 15 7 9 13 12 11 10 12 14 14 16 19 22 26 30 31 30 31 32 32 32
21 23 23 24 24 25 25 26 26 26 25 26 27 27 28 27 27 26 26 26 25 24 23 22 16 11 5 14 13 13 14 14 15 15 15 18 25 28 30 32 31 29 29
21 21 21 22 23 24 24 24 25 26 27 28 28 27 27 27 27 27 27 26 25 25 24 23 22 20 15 12 5 13 16 16 12 16 18 17 20 22 23 27 30 29 29
19 19 20 21 21 20 22 24 24 24 24 25 25 26 26 26 27 27 27 27 27 27 25 23 21 19 18 18 15 14 5 14 14 13 16 22 23 24 24 24 26 29 29
Wind_Direction
354 1 347 333 294 282 274 288 295 290 273 276 251 246 249 246 261 269 267 269 276 276 276 273 280 279 277 277 273 271 266 262 260 268 266 266 265 266 265 251 249 242 239
5 1 358 339 293 291 285 292 295 283 279 281 260 243 241 258 258 260 259 259 272 277 278 279 286 282 278 275 273 270 266 263 258 260 266 265 261 261 263 261 251 250 254
355 354 346 308 297 302 307 312 302 268 268 271 252 245 253 253 250 248 257 263 268 278 279 277 283 280 276 275 273 267 266 262 258 259 266 266 263 260 256 256 253 249 242
355 352 341 326 321 323 326 325 310 288 266 270 277 275 264 252 246 253 257 265 268 271 276 276 278 282 281 279 270 266 268 263 260 258 260 258 257 257 258 255 251 242 244
331 327 324 320 317 316 316 318 316 307 299 288 278 269 260 245 254 278 262 264 279 271 271 273 274 280 278 279 267 262 263 263 260 260 257 258 254 259 255 251 249 245 243
336 333 326 321 316 314 311 310 309 304 299 293 288 284 273 265 264 270 273 270 274 269 271 270 273 278 277 275 262 260 259 263 260 252 256 253 252 258 254 251 248 232 228
334 328 324 318 314 317 316 310 305 308 308 300 295 290 283 280 277 277 277 275 271 269 268 269 274 278 272 269 257 255 260 260 256 254 251 250 256 256 257 255 251 240 232
328 322 318 312 307 304 305 307 301 302 304 301 294 289 286 284 282 277 273 273 270 264 266 270 271 271 265 264 252 249 249 242 242 240 239 245 247 250 261 257 247 239 245
322 317 313 308 308 303 304 303 304 304 303 300 293 290 286 284 283 282 278 271 267 264 263 262 263 262 259 257 242 235 227 226 216 221 231 235 243 247 271 239 239 231 215
319 319 317 314 313 312 310 308 307 307 306 305 299 294 288 287 287 285 281 273 264 261 255 255 252 253 250 242 235 221 217 207 212 212 218 232 227 235 30 270 242 211 197
317 318 317 315 315 314 313 311 313 310 308 306 302 297 296 294 292 288 279 268 261 254 246 254 249 251 246 231 223 215 209 207 202 199 204 215 208 202 125 125 209 216 190
324 328 329 324 318 315 313 314 316 318 318 312 308 305 303 303 300 296 278 262 255 246 245 254 250 246 241 222 219 210 202 205 202 202 204 195 208 171 145 135 133 148 162
327 323 323 321 323 323 321 322 326 330 330 323 319 309 306 306 308 303 286 259 241 240 245 255 245 241 224 211 218 217 210 204 197 186 190 204 189 170 151 146 143 119 120
329 328 328 329 333 334 335 342 337 339 333 323 316 311 314 306 312 306 283 287 258 251 253 252 234 223 200 206 198 196 203 204 198 203 210 197 192 176 171 166 161 157 136
333 335 335 337 335 333 336 342 344 356 356 332 320 314 309 304 308 298 275 269 271 270 261 227 209 197 193 189 186 195 198 200 204 213 204 201 207 192 186 179 178 177 176
337 338 341 345 349 350 344 341 348 354 359 357 349 337 319 304 297 293 267 271 278 258 216 195 198 201 201 193 195 199 201 205 210 213 204 202 204 203 200 189 188 186 186
341 339 346 350 351 351 350 348 345 349 2 9 358 8 22 355 336 299 282 250 257 225 213 202 204 210 213 209 213 210 211 212 212 221 217 210 206 204 203 193 189 195 198
345 347 352 350 347 347 351 354 356 359 0 3 7 4 5 6 5 341 323 300 212 167 208 225 240 232 236 232 220 215 214 219 221 223 217 208 205 202 198 195 196 201 204
356 356 358 354 353 350 351 354 4 10 11 9 5 11 0 8 25 25 18 26 145 166 190 216 245 246 243 236 232 227 219 225 232 222 213 204 203 201 202 195 192 192 195
9 7 5 359 358 359 3 6 9 12 15 20 15 13 9 3 8 25 35 17 3 258 227 226 240 254 253 251 242 227 224 232 225 213 213 207 205 201 202 198 192 192 192
13 13 14 15 15 17 18 19 18 17 18 24 28 24 20 23 24 33 32 35 20 333 294 302 269 234 249 257 249 249 227 224 220 214 207 209 206 208 207 207 208 205 206
16 18 20 23 25 25 27 30 27 28 32 35 35 31 31 37 42 40 33 32 26 349 302 277 252 281 262 255 249 242 240 235 225 223 220 215 216 216 215 215 214 215 216
18 20 22 24 28 29 30 31 32 32 35 36 36 35 35 36 37 34 33 30 28 27 10 328 259 226 231 239 255 255 250 253 235 229 228 227 219 217 218 218 219 221 224
12 17 19 22 24 28 30 31 33 34 35 35 35 37 36 35 35 36 35 35 35 34 28 23 18 351 227 236 238 236 236 235 238 226 224 225 219 220 225 225 223 226 230
18 17 21 20 20 24 27 28 29 32 34 35 36 35 35 35 36 35 32 31 32 33 36 36 35 35 30 7 279 233 234 229 229 232 226 226 222 224 228 226 220 220 222
13 13 20 22 23 23 26 28 29 29 29 29 30 30 29 29 29 29 29 30 32 33 33 33 33 32 33 44 39 14 21 223 237 242 232 226 225 227 226 225 225 225 228
Height
1488 1487 1484 1482 1481 1481 1482 1482 1480 1476 1473 1470 1473 1477 1482 1484 1479 1480 1480 1485 1485 1484 1481 1481 1480 1482 1482 1479 1475 1473 1473 1473 1468 1467 1468 1470 1473 1474 1476 1479 1482 1485 1488
1486 1484 1483 1481 1481 1481 1479 1478 1472 1466 1463 1462 1463 1465 1471 1471 1472 1475 1476 1475 1474 1473 1474 1474 1471 1474 1474 1471 1467 1463 1462 1463 1463 1458 1459 1460 1463 1466 1468 1470 1473 1476 1478
1486 1484 1483 1481 1479 1477 1472 1468 1464 1462 1459 1458 1459 1461 1463 1464 1463 1465 1465 1464 1466 1466 1467 1466 1463 1463 1462 1462 1460 1452 1452 1454 1454 1453 1451 1452 1454 1456 1460 1462 1464 1467 1470
1487 1484 1482 1479 1475 1470 1466 1462 1458 1456 1455 1454 1454 1454 1455 1455 1455 1456 1455 1456 1454 1456 1459 1457 1455 1453 1453 1450 1451 1446 1443 1445 1447 1446 1444 1445 1446 1448 1451 1453 1455 1457 1460
1485 1481 1478 1475 1471 1467 1462 1458 1454 1450 1449 1448 1447 1447 1448 1448 1447 1444 1445 1443 1445 1445 1449 1446 1446 1443 1444 1441 1441 1438 1436 1437 1439 1438 1437 1438 1438 1441 1442 1446 1449 1451 1454
1482 1479 1475 1470 1466 1463 1460 1456 1452 1449 1446 1444 1441 1439 1437 1437 1436 1435 1432 1432 1432 1434 1437 1436 1436 1433 1433 1433 1432 1430 1428 1430 1431 1430 1431 1430 1430 1434 1436 1439 1442 1444 1447
1477 1474 1471 1467 1462 1458 1455 1451 1448 1445 1441 1437 1432 1429 1426 1425 1424 1423 1423 1421 1421 1423 1424 1425 1424 1422 1423 1424 1423 1421 1420 1421 1424 1422 1423 1424 1425 1427 1431 1431 1432 1435 1436
1472 1468 1464 1461 1457 1454 1449 1446 1442 1438 1433 1429 1425 1422 1417 1415 1414 1413 1413 1411 1410 1411 1411 1412 1411 1413 1413 1414 1413 1413 1412 1414 1417 1416 1418 1419 1420 1423 1424 1422 1424 1428 1431
1466 1461 1456 1452 1449 1446 1444 1439 1435 1430 1425 1421 1417 1413 1409 1406 1405 1404 1403 1400 1398 1398 1400 1401 1401 1403 1403 1403 1405 1406 1408 1410 1411 1413 1414 1414 1415 1419 1417 1415 1416 1419 1423
1460 1454 1449 1445 1441 1439 1436 1432 1427 1423 1417 1412 1407 1403 1399 1395 1393 1391 1390 1387 1386 1388 1389 1392 1393 1393 1395 1394 1397 1401 1403 1404 1408 1411 1410 1411 1413 1415 1412 1410 1411 1414 1416
1454 1448 1444 1440 1436 1433 1429 1424 1420 1415 1409 1404 1398 1394 1391 1387 1383 1381 1379 1376 1377 1378 1380 1382 1384 1386 1387 1388 1392 1396 1399 1403 1406 1408 1408 1409 1411 1412 1412 1412 1414 1413 1415
1450 1444 1439 1434 1430 1426 1422 1418 1414 1408 1402 1396 1391 1386 1382 1380 1377 1372 1369 1368 1369 1368 1371 1375 1378 1379 1381 1384 1387 1391 1396 1400 1403 1404 1406 1407 1410 1412 1414 1416 1418 1420 1421
1446 1441 1435 1430 1425 1420 1416 1411 1407 1402 1396 1390 1384 1378 1374 1372 1370 1366 1362 1360 1361 1361 1365 1368 1370 1372 1374 1378 1383 1387 1388 1396 1399 1401 1404 1407 1411 1413 1415 1418 1422 1425 1427
1442 1437 1431 1425 1420 1416 1411 1407 1402 1397 1391 1385 1378 1372 1367 1365 1364 1362 1359 1356 1357 1358 1360 1362 1363 1366 1369 1374 1379 1384 1388 1393 1396 1399 1404 1406 1410 1413 1416 1420 1422 1425 1430
1440 1434 1428 1423 1417 1411 1408 1404 1399 1394 1388 1377 1371 1367 1362 1359 1359 1358 1356 1354 1355 1355 1355 1356 1358 1361 1366 1370 1375 1382 1386 1389 1392 1395 1400 1403 1408 1411 1415 1419 1423 1426 1430
1438 1432 1427 1421 1415 1410 1406 1400 1396 1392 1384 1376 1369 1362 1359 1357 1354 1353 1353 1353 1353 1352 1352 1354 1356 1359 1363 1367 1373 1378 1381 1385 1389 1393 1398 1401 1406 1409 1412 1417 1421 1425 1429
1437 1431 1426 1420 1416 1411 1406 1400 1393 1386 1382 1373 1367 1361 1358 1354 1351 1349 1348 1349 1350 1351 1352 1353 1357 1360 1362 1366 1369 1374 1377 1381 1385 1389 1394 1399 1403 1407 1410 1413 1417 1422 1426
1436 1431 1426 1421 1416 1411 1405 1400 1394 1387 1379 1373 1368 1363 1358 1356 1352 1349 1348 1348 1349 1351 1354 1355 1358 1360 1362 1363 1366 1370 1374 1377 1381 1384 1388 1394 1399 1403 1407 1410 1414 1418 1422
1436 1430 1426 1421 1416 1411 1405 1399 1394 1389 1383 1376 1370 1365 1361 1357 1354 1351 1349 1349 1351 1352 1354 1356 1358 1359 1360 1361 1364 1366 1369 1373 1376 1381 1383 1387 1395 1400 1404 1408 1411 1416 1420
1438 1432 1427 1422 1416 1411 1406 1400 1395 1391 1386 1380 1374 1369 1362 1359 1356 1355 1353 1353 1352 1353 1355 1357 1358 1359 1359 1360 1362 1356 1365 1368 1372 1377 1381 1387 1391 1396 1401 1405 1409 1413 1418
1439 1434 1429 1423 1418 1413 1408 1403 1398 1393 1388 1383 1379 1375 1370 1363 1359 1355 1354 1354 1352 1353 1354 1356 1357 1357 1358 1358 1358 1360 1363 1366 1370 1373 1376 1382 1386 1391 1396 1401 1406 1410 1415
1442 1437 1431 1426 1421 1416 1410 1406 1402 1396 1392 1387 1383 1379 1374 1369 1364 1360 1357 1354 1353 1353 1351 1352 1353 1356 1357 1356 1357 1359 1361 1363 1366 1369 1372 1377 1382 1386 1390 1394 1399 1404 1409
1445 1440 1435 1430 1425 1420 1415 1410 1405 1401 1396 1392 1387 1383 1379 1375 1370 1367 1361 1360 1356 1354 1351 1349 1349 1350 1351 1352 1354 1355 1357 1358 1361 1364 1367 1370 1375 1379 1383 1387 1392 1396 1400
1447 1442 1437 1433 1428 1424 1419 1414 1410 1406 1401 1397 1393 1389 1385 1381 1378 1374 1371 1367 1364 1359 1355 1352 1349 1345 1343 1349 1350 1351 1353 1355 1356 1359 1361 1363 1367 1372 1377 1380 1384 1388 1393
1447 1443 1438 1434 1430 1426 1422 1418 1414 1410 1406 1402 1398 1395 1391 1388 1384 1380 1376 1373 1369 1365 1361 1357 1354 1351 1346 1345 1344 1346 1348 1350 1351 1354 1356 1359 1362 1365 1369 1372 1376 1381 1386
1449 1445 1441 1437 1433 1429 1425 1421 1417 1413 1410 1406 1403 1399 1395 1392 1388 1384 1380 1377 1373 1369 1366 1363 1360 1357 1354 1349 1345 1346 1344 1344 1346 1349 1351 1352 1355 1359 1362 1366 1370 1373 1377